STARLINK-34003 (63882 NORAD) Tracking and Keplerian Element Data

This shows tracking and keplerian element data for the satellite.

Feedback or suggestion? Click here.




ElementValue
Catalog63882
NameSTARLINK-34003
Epoch Orbit3554
Epoch Day353.37277019
Epoch Year2025
RAAN62.0822
Inclination69.9996
Eccentricity0.0003204
Argument of Perigee255.2905
Mean Anonmoly104.7921
Mean Motion15.42757704
Decay Rate0.00046698
L11 63882U 25094U 25353.37277019 .00046698 00000+0 10617-2 0 9990
L22 63882 69.9996 62.0822 0003204 255.2905 104.7921 15.42757704 35547



Live tracking and technical data element details for STARLINK-34003 (NORAD 63882). STARLINK-34003 can be tracked NOW for your location showing map with azimuth and elevation plus other details from your city location.







IsCatalogInMostPopularTable: catalog: 63882, numindb: 6
Update: records affected: 1



GetName: 63882 STARLINK-34003

Hit Count: updated at: Mon, 20 Apr 2026 10:19:42 GMT